Location: Beneden-Haastrecht
(52.0012°N, 4.7557°E)
Time: 11:33:29
(UTC+00:00)

Cosmos 1689 Rocket - Pass Details

Date: 24 October 2020
Orbit: 360 x 375 km, 97.5° (Epoch: 25 November)

Event Time Altitude Azimuth Distance (km) Brightness Sun altitude
Rises 17:08:02 0° 27° (NNE) 2,220 5.6 -6.9°
Reaches altitude 10° 17:10:23 10° 47° (NE) 1,363 4.3 -7.3°
Maximum altitude 17:12:30 18° 94° (E) 973 3.5 -7.6°
Drops below altitude 10° 17:14:36 10° 141° (SE) 1,348 4.5 -7.9°
Sets 17:16:54 0° 161° (SSE) 2,187 5.8 -8.2°
